Temperature
14 14 14 14 14 14 14 14 14 14 15 15 15 15 15 15 15 15 15 15 15 15 14 15 15 15 15 15 15 15 15 15 15 15 15 15 15 15 15 15 14 14 15
14 14 14 14 14 14 14 14 14 14 14 15 15 15 15 15 15 15 15 15 15 15 14 15 14 14 15 15 14 15 15 15 15 14 14 14 14 14 14 14 14 14 14
14 14 14 14 14 14 14 14 14 14 14 14 15 15 15 15 15 15 15 15 14 14 14 14 14 14 14 14 14 14 14 14 14 14 14 14 14 14 14 14 14 14 14
14 14 14 14 14 14 14 14 14 14 14 14 14 14 14 14 14 14 14 14 14 14 14 14 14 14 14 14 14 14 14 14 14 14 13 13 13 13 13 13 13 13 14
13 13 13 13 13 13 13 13 14 14 14 14 14 14 14 14 14 14 14 14 14 14 14 14 14 14 14 14 14 14 14 14 14 13 13 13 13 13 13 13 13 13 13
13 13 13 13 13 13 13 13 13 13 13 14 14 14 14 14 14 14 14 14 14 14 14 14 14 14 14 14 14 14 14 14 13 13 13 13 13 13 13 13 13 13 13
13 13 13 13 13 13 13 13 13 13 13 13 13 13 14 14 14 14 14 13 13 13 13 13 13 13 13 13 13 13 13 13 13 13 13 12 13 13 13 13 13 12 12
13 13 13 13 13 13 13 13 13 13 13 13 13 13 13 13 13 13 13 13 13 13 13 13 13 13 13 13 13 13 13 13 13 12 12 12 12 12 12 12 12 12 12
12 12 12 12 12 12 13 13 13 13 13 13 13 13 13 13 13 13 13 13 13 13 13 13 13 13 13 13 13 13 13 13 12 12 12 12 12 12 12 12 12 12 12
12 12 12 12 12 12 12 12 12 12 12 12 12 12 12 12 12 12 13 12 12 12 12 12 12 12 12 12 12 12 12 12 12 12 11 11 12 11 11 11 11 11 11
11 12 12 12 12 12 12 12 12 12 12 12 12 12 12 12 12 12 12 12 12 12 12 12 12 12 12 12 12 12 12 12 11 11 11 11 11 11 11 11 11 11 11
11 11 11 11 11 11 11 11 11 11 11 11 12 12 12 12 12 12 12 12 12 12 12 12 11 11 11 11 11 11 11 11 11 11 11 11 11 11 11 11 11 11 11
11 11 11 11 11 11 11 11 11 11 11 11 11 11 11 11 11 11 11 11 11 11 11 11 11 11 11 11 11 11 11 11 11 10 10 10 10 10 10 10 10 10 10
10 11 11 11 11 11 11 11 11 11 11 11 11 11 11 11 11 11 11 11 11 11 11 10 10 10 10 10 10 10 10 10 10 10 10 10 10 10 9 9 10 9 9
10 10 10 10 10 10 10 10 10 10 10 10 10 10 10 10 10 10 10 10 10 10 10 10 10 10 10 10 10 10 10 10 9 9 9 9 9 9 9 9 9 9 9
10 10 10 10 10 10 10 10 10 10 10 10 10 10 10 10 10 10 10 10 9 9 9 9 9 9 9 9 9 9 9 9 9 9 9 9 9 9 9 9 9 9 9
10 10 10 10 10 10 10 9 9 9 9 9 9 9 9 9 9 9 9 9 9 9 9 9 9 9 9 9 9 9 9 9 9 9 9 8 8 8 8 8 8 8 8
9 9 9 9 9 9 9 9 9 9 9 9 9 9 9 9 9 9 9 9 9 9 8 8 8 8 8 8 8 8 8 8 8 8 8 8 8 8 8 8 8 8 8
9 9 9 9 9 9 9 8 8 8 8 8 8 8 8 8 8 8 8 8 8 8 8 8 8 8 8 8 8 8 8 8 8 8 7 7 7 7 7 7 7 7 7
9 9 9 9 9 8 8 8 8 8 8 8 8 8 8 8 8 8 7 7 7 7 7 7 7 7 7 7 7 7 7 7 7 7 7 7 7 7 7 7 7 7 7
8 8 8 8 8 8 8 8 8 8 8 7 7 7 7 7 7 7 7 7 7 7 7 7 7 6 6 7 6 6 6 6 6 6 6 6 6 6 6 6 6 6 6
8 8 8 8 8 8 8 7 7 7 7 7 7 7 7 7 7 7 6 6 6 6 6 6 6 6 6 6 6 5 5 5 5 5 6 5 5 5 5 5 5 6 5
7 8 7 7 7 7 7 7 7 7 7 7 7 7 6 6 6 6 6 6 6 6 6 6 6 5 5 5 5 5 5 5 4 5 5 5 5 5 5 5 5 5 5
7 7 7 7 7 7 7 7 7 7 7 7 6 6 6 6 6 6 6 5 5 5 5 5 5 5 5 4 5 4 4 4 4 4 4 4 4 4 4 4 4 4 4
7 7 7 7 7 7 7 6 6 6 6 6 6 6 6 6 5 5 5 5 5 5 5 5 4 4 4 4 4 4 4 4 3 3 3 3 4 4 4 4 4 4 4
6 6 6 6 6 6 6 6 6 6 6 6 5 5 5 5 5 5 5 5 4 4 4 4 4 4 4 4 3 3 3 3 3 3 3 3 3 3 3 3 3 3 3
Wind_Speed
2 2 3 4 6 7 7 8 8 9 10 10 10 11 12 12 11 11 11 11 11 12 12 13 13 14 14 14 14 13 13 13 13 13 13 14 14 14 13 12 11 12 13
3 4 5 4 6 7 8 8 9 9 9 10 10 10 11 11 11 11 11 11 11 12 12 12 13 13 13 13 13 13 13 13 12 12 12 12 13 13 13 12 11 12 12
4 5 6 5 8 8 8 9 9 9 9 10 10 10 10 11 11 10 11 11 11 11 11 12 12 13 13 13 13 13 13 13 12 10 8 10 12 12 12 11 12 12 12
4 5 6 7 8 8 8 8 9 9 9 9 9 9 10 10 10 10 10 11 11 11 11 12 12 12 12 12 12 12 12 12 10 7 8 9 9 11 10 10 10 10 11
5 6 7 8 9 9 8 8 9 8 8 8 9 9 9 10 10 10 10 10 10 10 11 11 12 12 12 12 12 11 11 10 8 7 8 8 8 10 10 9 9 9 10
5 6 7 8 9 9 9 8 8 8 8 8 8 8 9 9 9 9 10 10 10 10 10 10 11 11 11 11 11 11 10 8 6 7 7 7 8 9 9 9 9 8 8
5 6 7 8 8 8 9 9 8 8 8 7 8 8 8 8 9 9 9 10 10 10 9 10 10 11 11 11 10 10 9 6 6 7 7 7 8 9 8 8 8 7 7
6 6 6 7 7 8 8 8 8 8 8 7 7 7 7 8 8 9 9 9 9 10 9 10 10 10 10 10 10 9 8 5 5 6 6 6 8 8 8 8 8 8 7
6 6 6 6 6 7 7 8 8 8 8 8 8 6 7 8 9 9 9 9 9 10 9 9 9 9 9 9 9 8 7 5 4 5 5 6 7 6 7 7 8 7 7
5 5 5 5 5 5 6 8 8 8 9 9 9 8 7 7 8 9 9 9 8 9 9 9 9 9 9 8 8 7 6 3 4 5 4 6 7 6 6 6 7 7 7
4 3 3 3 4 4 5 6 7 7 8 8 9 9 7 5 6 6 8 8 7 8 9 9 8 8 7 8 8 6 4 3 4 4 5 7 6 5 5 5 6 6 6
4 3 2 3 3 3 4 4 4 5 5 6 6 6 5 5 5 5 7 7 7 8 9 8 7 6 4 4 5 4 3 3 3 4 5 7 5 5 5 5 5 5 5
4 3 3 3 3 3 3 3 3 3 4 4 5 5 4 4 4 4 4 4 5 5 5 5 5 4 3 3 3 3 3 3 3 4 6 8 6 5 4 5 5 4 4
5 4 3 3 3 3 3 3 3 3 3 3 4 4 3 3 3 3 3 3 3 3 3 3 2 3 3 3 3 3 3 3 3 3 5 8 7 6 5 4 4 5 5
4 4 3 3 3 3 3 2 2 2 3 3 3 3 3 3 2 3 3 3 3 3 3 2 2 2 3 3 3 3 3 3 3 2 3 7 8 7 6 5 5 5 5
4 4 4 4 3 3 2 2 2 2 3 3 3 3 3 3 2 2 3 3 3 3 2 2 2 2 2 2 2 2 2 2 2 2 2 4 6 7 7 6 6 5 5
5 4 4 4 4 3 3 2 2 3 3 3 3 3 3 2 2 2 2 2 2 2 2 2 2 2 1 2 2 2 2 2 2 2 2 2 3 5 7 7 7 7 6
5 5 4 3 4 4 3 2 2 3 3 2 3 3 2 2 2 2 2 2 2 2 1 1 1 1 1 1 1 1 1 1 1 2 2 3 3 3 4 7 7 7 7
5 5 5 4 4 4 3 3 2 2 2 2 2 2 2 2 1 1 1 1 1 2 1 1 0 0 0 1 1 1 1 1 1 1 2 3 3 3 3 4 5 7 7
5 5 5 5 5 4 3 3 2 2 2 2 2 2 2 2 1 1 1 1 1 1 1 1 1 0 1 1 0 0 0 0 0 1 1 2 2 3 4 4 3 4 6
5 5 5 5 5 5 4 3 3 2 2 2 1 2 2 2 2 1 1 1 1 1 1 1 1 1 1 0 0 0 0 1 1 0 0 0 1 2 3 4 3 4 3
5 5 5 5 5 5 4 3 2 2 2 1 1 1 2 2 2 2 2 1 1 1 1 1 1 1 0 0 1 1 1 2 2 2 2 1 1 1 2 3 3 4 4
5 5 4 5 5 5 5 3 3 2 2 2 2 1 1 2 2 2 2 2 2 1 2 2 2 2 1 1 1 2 2 2 2 2 3 2 2 2 2 3 3 4 4
4 4 4 4 4 4 4 5 5 4 4 3 2 2 2 2 2 2 2 2 2 2 2 2 2 2 3 2 1 2 2 2 2 2 2 2 2 3 3 3 3 4 5
4 4 4 4 4 4 4 5 5 5 3 3 3 3 2 2 3 3 3 3 3 3 3 3 3 3 3 3 2 2 2 2 3 3 3 3 3 3 3 4 3 4 5
3 3 4 4 3 3 4 4 5 5 5 4 4 3 2 2 3 3 4 4 3 3 3 3 3 3 3 3 3 3 3 3 3 3 4 4 4 3 4 4 4 4 5
Wind_Direction
150 137 101 93 108 103 96 95 91 89 93 91 92 93 91 88 84 81 82 82 81 80 81 82 82 82 83 82 81 81 81 79 81 81 82 83 82 81 80 77 78 78 75
149 142 118 101 108 106 101 98 91 88 91 94 93 93 93 91 89 84 82 81 79 80 80 80 80 81 82 81 81 81 79 78 79 82 85 88 83 81 79 74 67 76 77
133 136 130 107 106 103 101 99 93 90 90 94 95 93 94 93 91 87 83 81 81 81 81 82 82 82 81 81 80 81 80 79 78 80 87 86 85 80 78 75 75 77 75
125 124 117 104 105 103 98 99 97 93 92 92 93 94 92 92 90 87 86 83 83 85 82 82 83 83 82 81 80 81 81 78 74 75 80 78 80 77 75 74 76 77 74
120 119 111 103 101 97 95 94 97 96 96 95 93 92 92 92 87 85 85 84 84 84 84 85 88 88 85 84 83 82 81 78 72 74 75 74 76 76 72 73 76 79 77
116 114 111 100 100 97 93 91 92 95 96 95 92 91 90 91 87 83 82 82 82 83 85 86 86 88 87 86 84 82 82 78 83 76 73 71 72 73 72 71 76 79 78
115 109 108 96 96 95 94 91 89 91 92 96 96 96 92 91 90 87 83 82 84 84 85 86 85 84 83 84 84 82 78 70 75 76 69 66 65 69 71 70 69 72 72
115 109 110 99 95 94 93 89 87 87 87 90 95 100 98 94 92 88 87 86 86 86 84 86 86 81 81 79 78 77 74 66 81 76 72 69 62 64 67 68 66 67 68
113 113 111 113 105 98 95 88 85 83 85 84 83 93 99 96 93 88 86 86 86 85 83 83 83 82 79 79 76 75 73 58 72 76 75 71 62 62 72 70 68 64 63
110 111 109 114 113 113 109 91 84 84 84 85 77 77 91 95 96 91 86 81 87 86 84 82 83 81 79 78 74 73 76 77 68 72 69 66 62 66 73 75 72 67 64
117 113 112 113 114 115 112 102 94 88 85 88 83 79 89 96 96 94 79 79 84 87 88 85 82 81 79 79 70 68 77 68 65 60 60 54 60 61 65 69 73 70 66
154 143 126 117 112 115 109 112 105 95 91 90 89 88 84 87 83 82 82 78 82 88 90 85 84 86 79 79 75 70 65 56 56 54 50 47 49 51 57 61 64 65 65
173 159 148 136 123 114 108 110 101 97 92 88 84 83 86 85 87 81 83 81 81 86 84 86 89 79 70 64 64 59 51 49 48 53 46 43 40 45 57 59 58 60 52
174 168 157 147 140 131 119 110 107 106 100 88 82 76 83 83 81 81 76 71 65 70 70 71 71 83 78 71 63 55 49 44 41 48 48 44 38 40 47 49 50 52 47
181 175 172 162 154 145 134 119 108 103 95 91 83 74 70 83 86 83 72 67 62 61 64 59 54 73 78 67 54 47 45 40 38 42 57 50 38 37 41 44 40 43 46
190 183 178 170 162 153 140 133 127 117 108 99 87 75 73 75 81 85 84 69 60 56 54 56 50 55 63 56 46 36 34 32 33 37 47 63 49 40 37 36 31 28 29
196 186 180 175 162 153 144 138 129 125 123 114 100 93 86 79 84 82 83 79 64 63 66 66 58 47 64 58 41 27 25 30 28 36 40 38 49 48 38 28 22 19 19
199 187 179 169 165 158 149 139 130 128 128 123 116 113 106 96 95 103 95 84 71 74 75 84 72 62 71 58 30 17 11 36 40 42 49 42 31 23 31 29 19 15 11
199 189 179 173 170 163 152 145 133 126 125 128 127 123 118 116 124 131 117 98 103 93 82 91 103 83 15 9 359 356 2 15 62 72 63 47 37 21 9 24 23 19 10
196 191 184 175 173 163 153 150 142 137 131 129 128 131 137 141 154 152 134 124 126 124 106 99 102 78 46 353 330 345 8 259 107 82 57 54 41 28 20 7 357 7 13
189 188 187 180 175 170 167 171 176 179 170 154 138 142 156 161 166 170 158 148 152 155 150 146 130 133 69 9 274 314 206 215 230 205 35 28 34 25 23 8 351 344 345
197 195 192 188 183 186 187 185 192 183 177 165 143 152 174 179 178 184 184 170 173 176 172 164 159 198 197 244 275 277 264 223 217 229 232 244 281 342 351 350 343 340 336
203 202 201 197 188 191 187 176 159 156 159 172 180 191 195 193 190 195 198 186 176 186 194 193 199 212 232 245 272 274 265 261 284 221 232 246 277 293 310 321 324 327 324
206 201 204 199 189 183 181 189 187 193 198 204 196 198 193 192 198 206 208 204 193 197 208 205 209 222 224 233 247 266 284 297 270 267 242 245 271 281 297 300 303 310 308
198 193 194 192 186 183 189 195 200 201 202 189 184 190 196 195 203 206 213 212 211 211 213 210 214 221 227 235 245 251 249 255 261 266 270 274 280 276 288 286 288 296 297
186 185 180 179 178 183 192 199 202 201 198 194 196 194 203 208 210 215 218 219 218 217 215 217 217 223 232 236 239 244 250 248 250 256 271 283 287 287 290 279 275 287 292
Height
1531 1531 1532 1533 1534 1535 1535 1535 1535 1534 1534 1534 1534 1534 1534 1533 1533 1533 1533 1533 1533 1533 1533 1533 1533 1532 1532 1532 1532 1531 1531 1531 1532 1532 1532 1531 1531 1531 1531 1531 1532 1531 1531
1530 1532 1532 1533 1534 1535 1535 1535 1535 1535 1535 1535 1535 1535 1535 1534 1534 1535 1534 1535 1535 1534 1534 1534 1534 1534 1533 1533 1533 1533 1533 1533 1533 1533 1533 1533 1533 1533 1533 1533 1532 1533 1532
1530 1531 1533 1534 1535 1535 1535 1536 1536 1536 1536 1536 1535 1535 1535 1535 1535 1536 1536 1536 1536 1536 1535 1535 1535 1534 1534 1534 1534 1534 1534 1534 1534 1534 1535 1535 1534 1534 1534 1534 1534 1534 1533
1530 1531 1532 1534 1535 1535 1536 1536 1536 1536 1536 1536 1536 1536 1536 1536 1536 1536 1537 1537 1537 1537 1536 1536 1535 1535 1535 1536 1535 1535 1535 1535 1536 1536 1536 1536 1536 1535 1535 1535 1535 1534 1534
1531 1532 1532 1534 1535 1535 1536 1536 1536 1537 1537 1537 1537 1537 1537 1537 1537 1537 1537 1537 1537 1537 1537 1537 1536 1536 1536 1536 1536 1536 1536 1536 1537 1537 1537 1537 1537 1536 1536 1536 1535 1535 1535
1531 1532 1532 1533 1534 1535 1536 1536 1536 1537 1537 1537 1537 1537 1537 1537 1537 1537 1538 1538 1538 1538 1538 1538 1537 1537 1537 1537 1537 1537 1537 1537 1537 1538 1538 1538 1537 1537 1537 1536 1536 1536 1535
1531 1532 1533 1533 1534 1535 1536 1536 1536 1537 1537 1537 1537 1537 1537 1537 1537 1538 1538 1538 1538 1538 1538 1538 1538 1538 1538 1538 1538 1538 1538 1538 1538 1538 1538 1538 1538 1537 1537 1537 1536 1536 1535
1531 1532 1533 1533 1534 1535 1535 1536 1536 1536 1537 1537 1537 1537 1537 1537 1537 1538 1538 1538 1538 1538 1538 1538 1538 1538 1538 1538 1538 1538 1538 1538 1538 1538 1538 1538 1538 1537 1537 1536 1536 1536 1535
1530 1531 1532 1533 1534 1535 1535 1535 1536 1536 1536 1536 1536 1536 1537 1537 1537 1538 1538 1538 1538 1538 1538 1538 1538 1538 1538 1538 1538 1538 1538 1538 1539 1538 1538 1538 1537 1537 1537 1536 1536 1535 1535
1530 1531 1532 1533 1533 1534 1534 1535 1535 1535 1536 1536 1536 1536 1536 1536 1537 1537 1537 1538 1538 1538 1538 1537 1538 1538 1538 1538 1538 1538 1538 1538 1539 1538 1538 1538 1537 1537 1536 1536 1535 1535 1535
1529 1530 1531 1532 1533 1533 1534 1534 1535 1535 1535 1535 1535 1535 1536 1536 1536 1537 1537 1537 1537 1537 1537 1537 1537 1537 1538 1538 1538 1538 1538 1538 1538 1538 1537 1537 1537 1537 1536 1535 1535 1534 1534
1528 1529 1530 1531 1532 1532 1533 1533 1534 1534 1534 1534 1534 1535 1535 1536 1536 1536 1536 1537 1537 1537 1536 1537 1537 1537 1537 1537 1537 1537 1538 1538 1538 1537 1537 1537 1536 1536 1535 1535 1534 1534 1533
1527 1528 1528 1529 1530 1531 1532 1532 1532 1532 1533 1533 1533 1534 1534 1534 1535 1535 1535 1535 1536 1535 1536 1536 1536 1536 1536 1536 1536 1537 1537 1537 1537 1536 1536 1536 1536 1535 1535 1534 1534 1533 1532
1526 1526 1527 1528 1529 1530 1530 1531 1531 1531 1532 1532 1532 1533 1533 1533 1534 1534 1534 1534 1534 1534 1535 1535 1535 1535 1535 1535 1535 1536 1536 1536 1535 1535 1535 1535 1534 1534 1533 1533 1533 1532 1531
1524 1525 1526 1526 1527 1528 1529 1529 1529 1529 1530 1530 1531 1531 1532 1532 1532 1533 1533 1533 1533 1533 1533 1534 1534 1534 1534 1534 1534 1534 1534 1534 1534 1534 1534 1533 1533 1533 1532 1532 1531 1531 1530
1522 1523 1524 1525 1525 1526 1527 1528 1528 1529 1529 1529 1530 1530 1530 1531 1531 1531 1531 1531 1532 1532 1532 1532 1532 1533 1533 1533 1533 1533 1533 1533 1533 1532 1532 1532 1532 1531 1531 1530 1530 1529 1528
1520 1521 1522 1523 1524 1524 1525 1526 1527 1527 1528 1528 1528 1529 1529 1529 1530 1530 1530 1530 1530 1530 1531 1531 1531 1531 1531 1531 1531 1531 1531 1531 1531 1531 1530 1530 1530 1529 1529 1528 1528 1527 1526
1518 1519 1520 1520 1521 1522 1523 1524 1525 1525 1526 1526 1527 1527 1528 1528 1528 1528 1528 1528 1528 1529 1529 1529 1529 1530 1530 1529 1529 1529 1529 1529 1529 1528 1528 1528 1528 1527 1527 1526 1526 1525 1524
1516 1516 1517 1518 1519 1520 1521 1522 1523 1523 1524 1525 1525 1525 1526 1526 1526 1527 1527 1527 1527 1527 1527 1527 1527 1527 1527 1527 1527 1527 1527 1526 1526 1526 1525 1525 1525 1525 1524 1524 1523 1523 1522
1513 1514 1515 1516 1517 1518 1519 1520 1521 1521 1522 1522 1523 1523 1523 1524 1524 1524 1525 1525 1525 1525 1525 1525 1525 1525 1525 1525 1525 1525 1524 1524 1524 1523 1523 1523 1522 1522 1522 1521 1521 1520 1519
1510 1511 1512 1513 1514 1515 1516 1517 1518 1519 1519 1520 1521 1521 1521 1521 1522 1522 1522 1522 1523 1523 1523 1523 1523 1523 1523 1523 1523 1523 1522 1522 1521 1521 1520 1520 1520 1519 1519 1518 1518 1517 1516
1507 1508 1509 1510 1511 1512 1513 1514 1515 1516 1517 1517 1518 1518 1519 1519 1519 1520 1520 1520 1520 1521 1521 1521 1521 1521 1521 1521 1521 1521 1521 1521 1519 1518 1518 1518 1517 1517 1516 1515 1515 1514 1513
1503 1505 1506 1507 1508 1509 1511 1512 1513 1514 1514 1515 1515 1516 1516 1516 1517 1517 1517 1518 1518 1518 1518 1518 1518 1519 1519 1519 1519 1520 1520 1519 1518 1517 1516 1515 1515 1514 1513 1512 1512 1511 1510
1501 1502 1503 1504 1505 1506 1507 1509 1509 1510 1511 1511 1512 1513 1513 1513 1514 1514 1514 1515 1515 1515 1515 1515 1515 1516 1516 1516 1516 1516 1517 1517 1517 1515 1514 1513 1512 1511 1510 1509 1508 1507 1506
1498 1499 1500 1501 1502 1503 1504 1505 1506 1507 1508 1509 1509 1510 1510 1510 1510 1511 1511 1511 1512 1512 1512 1512 1512 1513 1513 1513 1513 1513 1513 1513 1513 1513 1512 1511 1510 1509 1508 1506 1505 1504 1503
1495 1496 1497 1498 1499 1500 1501 1502 1503 1504 1505 1505 1506 1506 1506 1507 1507 1507 1508 1508 1508 1509 1509 1509 1509 1509 1510 1510 1510 1510 1510 1510 1510 1510 1509 1508 1507 1506 1504 1503 1502 1501 1500